Hourly Data Report for February 19, 2003

SHERBROOKE A
QUEBEC

45°26'00.000" N
71°41'00.000" W
241.40 m
7028124
71610
YSC

Download Data

Hourly Data (February 2003)
Hourly Data Report for February 19, 2003
TIME
LST
Temp Definition
°C
Dew Point Definition
°C
Rel Hum Definition
%
Precip. Amount Definition
mm

Wind Dir Definition
10's deg

Wind Spd Definition
km/h
Visibility Definition
km
Stn Press Definition
kPa
Hmdx Definition


Wind Chill Definition


Weather Definition


00:00 -5.7 -13.3 55   26 4 15.0 99.03   -8  
01:00 -6.8 -12.8 62     0 5.6 99.03     Snow
02:00 -7.2 -12.7 65   31 4 15.0 99.03   -9 Snow
03:00 -7.0 -11.6 70     0 2.6 99.08     Snow
04:00 -6.9 -10.8 74     0 4.8 99.08     Snow
05:00 -6.9 -10.5 75     0 4.8 99.08     Snow
06:00 -6.5 -9.7 78   11 6 1.4 99.06   -9 Snow
07:00 -6.1 -9.2 79     0 4.0 99.07     Snow
08:00 -5.6 -8.8 78     0 16.1 99.09     Cloudy
09:00 -3.9 -7.8 74     0 19.3 99.04     Mostly Cloudy
10:00 -2.3 -6.7 72   28 4 19.3 99.01   -4 Cloudy
11:00 -0.1 -5.7 66   21 13 24.1 98.94   -4 Mostly Cloudy
12:00 1.4 -6.0 58   18 20 24.1 98.79     Mostly Cloudy
13:00 1.4 -6.2 57   18 19 24.1 98.68     Mostly Cloudy
14:00 2.2 -5.6 56   17 15 24.1 98.57     Mostly Cloudy
15:00 2.8 -5.3 55   21 11 24.1 98.51     Mostly Cloudy
16:00 2.9 -5.4 54   22 13 24.1 98.45     Mostly Cloudy
17:00 1.9 -5.3 59   24 7 24.1 98.44     Mostly Cloudy
18:00 1.6 -5.3 60   22 13 15.0 98.46      
19:00 0.8 -4.9 66   27 19 15.0 98.52      
20:00 0.5 -5.4 65   25 13 15.0 98.54      
21:00 0.6 -5.6 63   24 9 15.0 98.57      
22:00 0.1 -5.5 66   22 4 15.0 98.58      
23:00 0.9 -5.8 61   24 11 15.0 98.55      

Notes on Data Quality.

Legend

  • E = Estimated
  • M = Missing
  • NA = Not Available*
  • [empty] = Indicates an unobserved value
Date modified: